This demonstration page uses our WeatherBlox Daily Observations layout. Learn more.

Left ArrowRight Arrow

39.08367, -84.50855

Hourly Observations for April 25, 2020

Temp ( °F °C ) Dew Point ( °F °C ) Humidity (%) Winds ( mph kmh ) Pressure ( in mb ) Visibility ( mi km ) Precip ( " mm )
12:02 am 00:02 Clear with Mist and Fog 49 9.4 48 8.9 97 97 Calm 29.90 1012 2 3 0.00 0.00
12:16 am 00:16 Clear with Mist and Fog 49 9.4 48 8.9 97 97 Calm 29.90 1012 3 5 0.00 0.00
12:24 am 00:24 Clear with Mist and Fog 48 8.9 47 8.3 96 96 Calm 29.90 1013 1 2 0.00 0.00
12:32 am 00:32 Clear with Fog 48 8.9 47 8.3 96 96 Calm 29.90 1013 1 1 0.00 0.00
12:37 am 00:37 Clear with Mist and Fog 47 8.3 47 8.3 100 100 Calm 29.90 1013 3 4 0.00 0.00
12:44 am 00:44 Clear with Mist and Fog 48 8.9 47 8.3 96 96 Calm 29.90 1013 3 5 0.00 0.00
12:53 am 00:53 Clear with Mist and Fog 49 9.4 48 8.9 97 97 Calm 29.89 1012 4 6 0.00 0.00
1:14 am 01:14 Clear with Mist and Fog 48 8.9 47 8.3 96 96 Calm 29.91 1013 2 3 0.00 0.00
1:21 am 01:21 Mostly Cloudy with Fog 48 8.9 47 8.3 96 96 Calm 29.91 1013 1 1 0.00 0.00
1:28 am 01:28 Mostly Cloudy with Fog 47 8.3 47 8.3 100 100 Calm 29.91 1013 0 0 0.00 0.00
1:33 am 01:33 Mostly Cloudy with Mist and Fog 48 8.9 47 8.3 96 96 Calm 29.91 1013 1 2 0.00 0.00
1:35 am 01:35 Mostly Clear with Mist and Fog 48 8.9 47 8.3 96 96 Calm 29.91 1013 3 4 0.00 0.00
1:42 am 01:42 Mostly Clear 47 8.3 46 7.8 97 97 Calm 29.91 1013 7 11 0.00 0.00
1:53 am 01:53 Clear with Mist and Fog 48 8.9 47 8.3 96 96 Calm 29.90 1013 1 2 0.00 0.00
1:57 am 01:57 Mostly Cloudy with Fog 47 8.3 47 8.3 100 100 Calm 29.92 1013 1 1 0.00 0.00
2:22 am 02:22 Mostly Cloudy with Fog 46 7.8 46 7.8 100 100 Calm 29.92 1013 0 0 0.00 0.00
2:33 am 02:33 Clear with Fog 47 8.3 46 7.8 97 97 Calm 29.92 1013 1 1 0.00 0.00
2:53 am 02:53 Clear with Fog 45 7.2 45 7.2 100 100 Calm 29.90 1013 1 1 0.00 0.00
3:00 am 03:00 Mostly Cloudy with Fog 45 7.2 45 7.2 100 100 Calm 29.91 1013 0 0 0.00 0.00
3:05 am 03:05 Clear with Fog 45 7.2 45 7.2 100 100 Calm 29.90 1013 1 1 0.00 0.00
3:08 am 03:08 Mostly Cloudy with Fog 45 7.2 45 7.2 100 100 Calm 29.90 1013 1 1 0.00 0.00
3:22 am 03:22 Clear with Mist and Fog 46 7.8 46 7.8 100 100 Calm 29.90 1013 1 2 0.00 0.00
3:27 am 03:27 Mostly Cloudy with Mist and Fog 45 7.2 45 7.2 100 100 Calm 29.90 1013 1 1 0.00 0.00
3:38 am 03:38 Mostly Cloudy with Fog 44 6.7 44 6.7 100 100 Calm 29.90 1013 0 0 0.00 0.00
3:48 am 03:48 Mostly Cloudy with Fog 43 6 43 6 100 100 S 3 6 29.91 1013 1 1 0.00 0.00
3:53 am 03:53 Mostly Cloudy with Fog 44 6.7 44 6.7 100 100 S 3 6 29.88 1012 0 0 0.00 0.00
4:16 am 04:16 Mostly Cloudy with Mist and Fog 46 7.8 45 7.2 96 96 Calm 29.89 1012 1 2 0.00 0.00
4:26 am 04:26 Mostly Cloudy with Mist and Fog 45 7.2 45 7.2 100 100 Calm 29.90 1013 1 1 0.00 0.00
4:53 am 04:53 Mostly Cloudy with Mist and Fog 46 7.8 45 7.2 96 96 Calm 29.88 1012 1 2 0.00 0.00
5:05 am 05:05 Mostly Cloudy with Fog 45 7.2 45 7.2 100 100 Calm 29.90 1013 1 1 0.00 0.00
5:25 am 05:25 Mostly Cloudy with Fog 45 7.2 45 7.2 100 100 Calm 29.90 1013 0 0 0.00 0.00
5:53 am 05:53 Mostly Cloudy with Fog 44 6.7 44 6.7 100 100 Calm 29.89 1012 0 0 0.00 0.00
6:53 am 06:53 Mostly Cloudy with Fog 45 7.2 44 6.7 97 97 Calm 29.91 1013 0 0 0.00 0.00
7:53 am 07:53 Mostly Cloudy with Mist and Fog 47 8.3 47 8.3 100 100 Calm 29.89 1012 2 3 0.00 0.00
7:58 am 07:58 Mostly Cloudy with Mist and Fog 48 8.9 48 8.9 100 100 Calm 29.91 1013 3 5 0.00 0.00
8:32 am 08:32 Sunny with Mist and Fog 49 9.4 48 8.9 97 97 Calm 29.91 1013 4 6 0.00 0.00
8:53 am 08:53 Sunny with Mist and Fog 49 9.4 49 9.4 100 100 Calm 29.90 1013 5 8 0.00 0.00
9:53 am 09:53 Sunny 52 11.1 50 10 93 93 Calm 29.89 1012 10 16 0.00 0.00
10:53 am 10:53 Sunny 64 17.8 52 11.1 65 65 ESE 8 13 29.85 1011 10 16 0.00 0.00
11:53 am 11:53 Mostly Sunny 66 18.9 49 9.4 54 54 SE 16 26 29.85 1011 10 16 0.00 0.00
12:53 pm 12:53 Partly Cloudy 66 18.9 49 9.4 54 54 SE 12 19 29.83 1010 10 16 0.00 0.00
1:53 pm 13:53 Partly Cloudy 67 19.4 50 10 55 55 ESE 9 15 29.80 1009 10 16 0.00 0.00
2:53 pm 14:53 Sunny 67 19.4 50 10 55 55 ESE 7 11 29.77 1008 10 16 0.00 0.00
3:53 pm 15:53 Cloudy 66 18.9 49 9.4 54 54 ESE 7 11 29.74 1007 10 16 0.00 0.00
4:53 pm 16:53 Cloudy 67 19.4 50 10 55 55 Calm 29.73 1007 10 16 0.00 0.00
5:20 pm 17:20 Cloudy with Light Rain 60 15.6 53 11.7 78 78 ESE 12 19 29.75 1007 8 13 0.03 0.76
5:53 pm 17:53 Cloudy with Light Rain 58 14.4 55 12.8 90 90 E 5 7 29.76 1008 6 10 0.12 3.05
6:53 pm 18:53 Cloudy with Light Rain 57 13.9 55 12.8 93 93 NNE 9 15 29.74 1007 8 13 0.07 1.78
7:53 pm 19:53 Cloudy 57 13.9 55 12.8 93 93 N 5 7 29.73 1007 10 16 0.00 0.00
8:53 pm 20:53 Cloudy 56 13.3 55 12.8 97 97 Calm 29.72 1006 10 16 0.00 0.00
9:53 pm 21:53 Cloudy 56 13.3 55 12.8 97 97 Calm 29.71 1006 10 16 0.00 0.00
10:44 pm 22:44 Cloudy with Mist and Fog 55 12.8 54 12.2 96 96 Calm 29.72 1007 2 3 0.00 0.00
10:53 pm 22:53 Cloudy with Mist and Fog 54 12.2 54 12.2 100 100 Calm 29.71 1006 1 1 0.00 0.00
11:02 pm 23:02 Cloudy with Mist and Fog 55 12.8 55 12.8 100 100 Calm 29.72 1007 2 3 0.00 0.00
11:09 pm 23:09 Cloudy with Mist and Fog 55 12.8 55 12.8 100 100 NNW 3 6 29.72 1007 5 8 0.00 0.00
11:41 pm 23:41 Cloudy with Light Rain 55 12.8 55 12.8 100 100 ENE 3 6 29.71 1006 3 4 0.01 0.25
11:49 pm 23:49 Cloudy with Light Rain 55 13 55 13 100 100 Calm 29.71 1006 5 8 0.02 0.51
11:53 pm 23:53 Cloudy with Light Rain 56 13.3 55 12.8 97 97 Calm 29.70 1006 5 8 0.02 0.51

Powered by AerisWeather